Terminal Aerodrome Forecast
Issued by NWS Pueblo, CO

Home | Current Version | Previous Version | Text Only | Print | Product List | Glossary On
Versions: 1 2 3 4 5 6 7 8 9 10 11 12 13 14 15 16 17 18 19 20 21 22 23 24 25 26 27 28 29 30 31 32 33 34 35
575
FTUS45 KPUB 080520
TAFCOS
TAF
KCOS 080520Z 0806/0906 16006KT P6SM OVC012
     FM081000 35007KT P6SM FEW015 SCT250
     FM081700 16007KT P6SM SCT250
     FM090200 03007KT P6SM FEW140 SCT250=

USA.gov is the U.S. government's official web portal to all federal, state and local government web resources and services.